Find Starlink 33670

NORAD ID: 63413 Int'l Des: 2025-065 Owner: SPXS Country: US Constellation: starlink operational
LEOCIRCULAR

Live Position

Loading 3D Globe...

About Starlink 33670

Description loading...

Upcoming Passes

Passes for default location (London). Set your location on the main map for personalized predictions.

Altitude History

Loading altitude history...

Two-Line Element Set

1 63413U 25065Q 26124.34905387 .00017348 00000-0 63806-3 0 9998
2 63413 42.9990 152.5864 0001180 267.6931 92.3786 15.27600206 61356
Epoch: May 4, 2026 • Age: 11 hours

Current Status

Altitude 495.5 km
Velocity 7.62 km/s
Sub-Earth Point -43.13°S, 89.56°W
Launch Date Mar 31, 2025
Age 1 years
Type internet

Technical Details

Classification Payload
Mass 575.00 kg
Dry Mass 530.00 kg
Total Mass 575.00 kg
Length 0.30 m
Diameter 4.10 m
Span 29.00 m
Shape Box + pan
Manufacturer SPXS
Bus Type Starlink V2MO
Phase Status In Orbit
Owner/State SPXS/US

Most Searched